Flag for Germany

Past Weather in Langen, Hesse, Germany — Yesterday and Last 2 Weeks

Now
59 °F

Light rain. Low clouds.


Feels Like: 59 °F
Forecast: 75 / 60 °F
Wind: 5 mph from Northwest

Location: Frankfurt-M-Flughafen Airport

Current Time: Jul 8, 2020 at 1:46:57 pm

Latest Report: Jul 8, 2020 at 1:20 pm


Visibility: N/A

Pressure: 30.04 "Hg

Humidity: 82%

Dew Point: 54 °F

Location of LangenLocation

Past Weather in Langen — Graph

°F

Langen Temperature Yesterday

Maximum temperature yesterday: 73 °F (at 4:20 pm)
Minimum temperature yesterday: 46 °F (at 4:50 am)
Average temperature yesterday: 62 °F

High & Low Weather Summary for the Past Weeks

 TemperatureHumidityPressure
High88 °F (Jun 26, 4:50 pm)100% (Jun 27, 5:20 am)30.27 "Hg (Jun 27, 5:20 am)
Low46 °F (Jul 7, 4:50 am)24% (Jun 24, 12:20 pm)29.74 "Hg (Jul 1, 6:50 pm)
Average69 °F59%29.99 "Hg
* Reported Jun 23 12:20 pm — Jul 8 12:50 pm, Langen. Weather by CustomWeather, © 2020

Note: Actual official high and low records may vary slightly from our data, if they occured in-between our weather recording intervals... More about our weather records

Langen Weather History for the Previous 24 Hours

Scroll right to see more
 ConditionsComfort  
Time TempWeatherWind HumidityBarometerVisibility
12:50 pm
Wed, Jul 8
59 °FLight rain. Overcast.3 mph82%30.04 "HgN/A
12:20 pm59 °FLight rain. More clouds than sun.7 mph88%30.04 "Hg5 mi
11:50 am61 °FLight rain. Broken clouds.7 mph72%30.04 "HgN/A
11:20 am63 °FLight rain. Partly sunny.6 mph64%30.04 "HgN/A
10:50 am63 °FLight rain. Partly sunny.7 mph64%30.01 "HgN/A
10:20 am63 °FPartly sunny.6 mph64%30.01 "HgN/A
9:50 am64 °FPartly sunny.5 mph60%30.01 "HgN/A
9:20 am63 °FPartly sunny.6 mph68%30.01 "HgN/A
8:50 am61 °FPartly sunny.7 mph72%30.01 "HgN/A
8:20 am61 °FLight rain. Partly sunny.7 mph72%30.01 "HgN/A
7:50 am59 °FSunny.5 mph77%30.01 "Hg10 mi
7:20 am57 °FSunny.6 mph82%30.01 "Hg10 mi
6:50 am57 °FLight rain. Clear.5 mph82%30.01 "HgN/A
6:20 am59 °FLight rain. Clear.2 mph77%30.01 "HgN/A
5:50 am59 °FLight rain. Clear.5 mph68%30.01 "HgN/A
5:20 am59 °FClear.6 mph68%30.01 "Hg10 mi
4:50 am59 °FClear.7 mph68%29.98 "Hg10 mi
4:20 am59 °FClear.7 mph63%30.01 "Hg10 mi
3:50 am59 °FClear.6 mph63%30.01 "Hg10 mi
3:20 am59 °FClear.5 mph63%30.01 "Hg10 mi
2:50 am59 °FClear.2 mph63%30.04 "Hg10 mi
2:20 am59 °FClear.3 mph63%30.04 "Hg10 mi
1:50 am59 °FClear.2 mph63%30.04 "Hg10 mi
1:20 am59 °FClear.2 mph63%30.04 "Hg10 mi
12:50 am59 °FClear.3 mph63%30.04 "Hg10 mi
12:20 am59 °FClear.3 mph63%30.04 "Hg10 mi
11:50 pm
Tue, Jul 7
59 °FClear.3 mph63%30.04 "Hg10 mi
11:20 pm61 °FClear.3 mph55%30.04 "Hg10 mi
10:50 pm61 °FPassing clouds.3 mph55%30.04 "HgN/A
10:20 pm61 °FPassing clouds.3 mph55%30.04 "HgN/A
9:50 pm63 °FClear.3 mph52%30.04 "Hg10 mi
9:20 pm66 °FSunny.5 mph46%30.04 "Hg10 mi
8:50 pm68 °FSunny.5 mph43%30.04 "Hg10 mi
8:20 pm72 °FPassing clouds.6 mph33%30.04 "HgN/A
7:50 pm72 °FPassing clouds.7 mph33%30.04 "HgN/A
7:20 pm72 °FPassing clouds.7 mph33%30.04 "HgN/A
6:50 pm73 °FPassing clouds.6 mph31%30.04 "HgN/A
6:20 pm73 °FPassing clouds.7 mph31%30.07 "HgN/A
5:50 pm73 °FSunny.5 mph29%30.07 "Hg10 mi
5:20 pm73 °FPassing clouds.7 mph29%30.07 "HgN/A
4:50 pm72 °FPassing clouds.8 mph31%30.09 "HgN/A
4:20 pm73 °FPassing clouds.7 mph29%30.09 "HgN/A
3:50 pm72 °FPassing clouds.8 mph31%30.09 "HgN/A
3:20 pm72 °FPassing clouds.7 mph29%30.12 "HgN/A
2:50 pm72 °FPassing clouds.9 mph29%30.12 "HgN/A
2:20 pm70 °FPassing clouds.8 mph33%30.12 "HgN/A
1:50 pm70 °FPassing clouds.8 mph33%30.12 "HgN/A
1:20 pm68 °FPassing clouds.9 mph38%30.15 "HgN/A
Weather by CustomWeather, © 2020

See weather overview